Location: Niedergestelen
(46.3129°N, 7.7822°E)
Time: 06:37:07
(UTC+00:00)

X-37B - Pass Details

Date: 01 December 2020
Orbit: 384 x 390 km, 45.0° (Epoch: 02 January)

Event Time Altitude Azimuth Distance (km) Brightness Sun altitude
Rises 17:23:17 0° 252° (WSW) 2,260 6.3 -16.5°
Reaches altitude 10° 17:25:21 10° 248° (WSW) 1,408 4.7 -16.9°
Maximum altitude 17:28:29 57° 168° (SSE) 462 0.9 -17.4°
Enters shadow 17:29:00 48° 126° (SE) 514 0.9 -17.5°
